Flag for U.S.A. Weather past 2 weeks in Dickinson, North Dakota, U.S.A.

Now
70 °F

Scattered clouds.


Feels Like: 77 °F
Forecast: 51 / 74 °F
Wind: 12 mph from West

Location: Dickinson Municipal Airport

Current Time: May 28, 2015 at 12:21:03 PM

Latest Report: May 28, 2015 at 11:56 AM


Visibility: 10 mi

Pressure: 29.85 "Hg

Humidity: 55%

Dew point: 53 °F

Location of DickinsonLocation

Historic Weather in Dickinson — Graph

°F

Dickinson temperature yesterday

Maximum temperature yesterday: 78 °F (at 12:56 PM)
Minimum temperature yesterday: 49 °F (at 12:56 AM)
Average temperature yesterday: 61 °F

Past Weeks' High & Low Weather Summary

 TemperatureHumidityPressure
High78 °F (May 27, 12:56 PM)100% (May 26, 6:04 AM)30.46 "Hg (May 26, 6:04 AM)
Low27 °F (May 19, 4:56 AM)18% (May 22, 2:56 PM)29.55 "Hg (May 16, 4:56 PM)
Average52 °F68%30.02 "Hg
* Reported May 13 10:56 AM — May 28 10:56 AM, Dickinson, Weather by CustomWeather, © 2015

Note: Actual official high and low records may vary slightly from our data, if they occured in-between our weather recording intervals... More about our weather records

Advertising

Dickinson weather history for previous 24 hours

 ConditionsComfort  
Time TempWeatherWind HumidityBarometerVisibility
10:56 AM
Thu, May 28
70 °FPassing clouds.12 mph61%29.86 "Hg10 mi
9:56 AM67 °FSunny.5 mph66%29.87 "Hg10 mi
8:56 AM63 °FSunny.8 mph78%29.87 "Hg10 mi
7:56 AM58 °FSunny.6 mph90%29.87 "Hg10 mi
6:56 AM53 °FSunny.3 mph93%29.88 "Hg9 mi
5:56 AM52 °FSunny.No wind97%29.89 "Hg8 mi
4:56 AM47 °FFog.3 mph97%29.89 "Hg0 mi
4:03 AM50 °FFog.3 mph93%29.88 "Hg3 mi
3:56 AM49 °FFog.3 mph93%29.86 "Hg1 mi
2:56 AM48 °FFog.3 mph96%29.87 "Hg0 mi
2:03 AM52 °FFog.3 mph93%29.89 "Hg0 mi
1:56 AM52 °FFog.3 mph97%29.85 "Hg1 mi
12:56 AM54 °FPassing clouds.5 mph93%29.87 "Hg10 mi
11:56 PM
Wed, May 27
58 °FOvercast.9 mph87%29.86 "Hg10 mi
10:56 PM57 °FOvercast.9 mph90%29.86 "Hg10 mi
9:56 PM55 °FOvercast.6 mph96%29.88 "Hg10 mi
8:56 PM56 °FPassing clouds.9 mph97%29.88 "Hg10 mi
7:56 PM57 °FPartly sunny.10 mph93%29.89 "Hg10 mi
6:56 PM59 °FOvercast.13 mph87%29.89 "Hg10 mi
5:56 PM57 °FLight rain. Fog.14 mph93%29.91 "Hg6 mi
4:56 PM58 °FThundershowers. Fog.16 mph87%29.91 "Hg4 mi
4:02 PM61 °FMostly cloudy.31 mph78%29.89 "Hg10 mi
3:56 PM69 °FThundershowers. More clouds than sun.16 mph55%29.87 "Hg10 mi
2:56 PM67 °FThunderstorms. Mostly cloudy.16 mph59%29.86 "Hg10 mi
1:56 PM77 °FPassing clouds.16 mph39%29.85 "Hg10 mi
12:56 PM78 °FSunny.18 mph36%29.87 "Hg10 mi
Weather by CustomWeather, © 2015

See weather overviewHow to use our weather pages